EW4885 Weather Reports


time (UTC)temp
F
wind
direction
speed
knots
gust
knots
rain 1hr
in
rain 24hr
in
rain mn
in
humidity
%
barometer
mb
20260508021535 45 321 0.0 0.0 0.00 0.00 0.00 94 1013.5
20260508020031 45 321 0.0 0.0 0.00 0.00 0.00 94 1013.6
20260508014529 45 321 0.0 0.0 0.00 0.00 0.00 93 1013.5
20260508013029 46 321 0.0 0.0 0.00 0.00 0.00 93 1013.4
20260508011532 46 321 0.0 0.0 0.00 0.00 0.00 93 1013.4
20260508010037 46 303 0.0 0.0 0.00 0.00 0.00 94 1013.4
20260508004527 46 303 0.0 0.0 0.00 0.01 0.00 94 1013.4
20260508003025 46 303 1.7 3.5 0.00 0.01 0.00 93 1013.4
20260508001524 46 123 0.0 0.0 0.00 0.01 0.00 92 1013.3
20260508000024 46 123 0.0 0.0 0.00 0.01 0.00 91 1013.1
20260507234520 46 123 0.0 0.0 0.00 0.01 0.00 91 1013.3
20260507233019 47 103 0.0 0.0 0.00 0.01 0.00 91 1013.4
20260507231518 47 25 0.0 0.0 0.00 0.01 0.00 90 1013.4
20260507230021 48 25 0.0 0.0 0.00 0.01 0.00 90 1013.5
20260507224512 48 303 0.0 0.0 0.00 0.01 0.00 90 1013.6
20260507223010 49 303 0.0 0.0 0.00 0.01 0.00 89 1013.5
20260507221537 49 302 0.0 0.0 0.00 0.01 0.00 88 1013.4
20260507220004 50 302 0.0 0.0 0.00 0.01 0.01 87 1013.2
20260507214504 50 313 0.0 0.0 0.00 0.01 0.01 86 1013.1
20260507213004 51 355 0.0 0.0 0.00 0.01 0.01 84 1013.1
20260507211502 52 355 0.0 1.7 0.00 0.01 0.01 82 1013.0
20260507210002 53 355 0.9 2.6 0.00 0.02 0.01 81 1013.0
20260507204501 53 19 0.9 2.6 0.00 0.02 0.01 80 1013.0
20260507203101 54 32 1.7 3.5 0.00 0.02 0.01 78 1013.0
20260507201620 54 23 0.0 0.0 0.00 0.02 0.01 77 1013.0
20260507200110 55 13 0.0 0.9 0.00 0.02 0.01 75 1013.0
20260507194558 56 5 0.0 0.0 0.00 0.02 0.01 73 1012.9
20260507193057 57 5 1.7 3.5 0.00 0.02 0.01 71 1012.7
20260507191557 58 355 1.7 3.5 0.00 0.02 0.01 69 1012.6
20260507190056 59 360 1.7 3.5 0.00 0.02 0.01 67 1012.5
20260507184555 60 341 2.6 5.2 0.00 0.20 0.01 66 1012.4
20260507183057 60 5 4.3 7.0 0.00 0.20 0.01 65 1012.3
20260507181604 61 349 3.5 6.1 0.00 0.20 0.01 62 1012.3
20260507180055 62 12 4.3 8.7 0.00 0.20 0.01 62 1012.2
20260507174558 62 360 4.3 9.6 0.00 0.20 0.01 62 1012.2
20260507173058 63 360 5.2 8.7 0.00 0.20 0.01 59 1012.2
20260507171601 64 5 4.3 7.0 0.00 0.20 0.01 58 1012.2
20260507170052 64 355 4.3 7.8 0.00 0.20 0.01 59 1012.2
20260507164551 65 12 4.3 8.7 0.00 0.20 0.01 59 1012.3
20260507163050 65 22 4.3 7.8 0.00 0.20 0.01 59 1012.4
20260507161559 66 342 3.5 7.8 0.00 0.20 0.01 57 1012.4
20260507160049 66 340 5.2 8.7 0.00 0.20 0.01 59 1012.5
20260507154549 66 290 3.5 7.0 0.00 0.20 0.01 55 1012.5
20260507153108 66 351 1.7 7.0 0.00 0.20 0.01 54 1012.5
20260507151556 66 355 6.1 7.8 0.00 0.20 0.01 55 1012.7
20260507150052 66 355 6.1 8.7 0.00 0.20 0.01 58 1012.7
20260507144548 66 334 4.3 8.7 0.00 0.20 0.01 57 1012.9
20260507143052 66 298 1.7 8.7 0.00 0.20 0.01 59 1012.9
20260507141544 66 14 4.3 9.6 0.00 0.20 0.01 57 1013.0
20260507140043 65 302 1.7 7.0 0.00 0.20 0.01 60 1013.2
20260507134540 65 324 4.3 7.0 0.00 0.20 0.01 62 1013.3
20260507133037 65 9 4.3 8.7 0.00 0.20 0.01 64 1013.5
20260507131536 64 342 5.2 9.6 0.00 0.20 0.01 64 1013.6
20260507130053 64 48 2.6 6.1 0.00 0.20 0.01 64 1013.7
20260507124533 63 341 0.9 7.8 0.00 0.20 0.01 68 1013.8
20260507123037 62 320 4.3 7.8 0.00 0.20 0.01 69 1013.9
20260507121535 63 9 0.9 7.0 0.00 0.20 0.01 62 1013.9
20260507120036 63 344 2.6 8.7 0.00 0.20 0.01 71 1013.9
20260507114528 63 279 3.5 7.8 0.00 0.21 0.01 73 1014.0
20260507113027 62 5 4.3 7.8 0.00 0.21 0.01 70 1014.2
20260507111523 62 310 3.5 8.7 0.00 0.21 0.01 74 1014.2
20260507110025 60 289 2.6 7.8 0.00 0.21 0.01 74 1014.3
20260507104521 60 316 3.5 7.8 0.00 0.26 0.01 72 1014.4
20260507103022 60 277 1.7 6.1 0.00 0.26 0.01 76 1014.4
20260507101525 60 307 1.7 6.1 0.00 0.26 0.01 73 1014.5
20260507100016 58 355 3.5 5.2 0.00 0.26 0.01 79 1014.7
20260507094512 57 355 3.5 6.1 0.00 0.40 0.01 79 1014.6
20260507093010 57 13 1.7 5.2 0.00 0.40 0.01 82 1014.5
20260507091507 56 32 1.7 3.5 0.00 0.40 0.01 84 1014.4
20260507090006 56 327 1.7 4.3 0.00 0.53 0.01 87 1014.4
20260507084504 56 281 0.9 4.3 0.00 0.53 0.01 88 1014.3
20260507083003 55 5 0.9 5.2 0.00 0.53 0.01 90 1014.2
20260507081604 54 328 1.7 6.1 0.00 0.53 0.01 90 1014.3
20260507080056 54 301 2.6 4.3 0.00 0.53 0.01 91 1014.2
20260507074606 53 344 2.6 4.3 0.00 0.68 0.01 92 1014.1
20260507073059 53 317 0.9 4.3 0.00 0.68 0.01 93 1014.1
20260507071549 52 306 1.7 3.5 0.00 0.68 0.01 94 1014.1
20260507070047 52 346 0.9 3.5 0.00 0.68 0.01 95 1014.0
20260507064544 51 273 0.0 0.9 0.00 0.87 0.01 95 1013.9
20260507063047 51 347 0.0 0.0 0.00 0.87 0.01 96 1013.8
20260507061539 50 347 0.0 0.0 0.00 0.87 0.01 97 1013.6
20260507060036 50 347 0.0 0.0 0.00 0.87 0.01 97 1013.6
20260507054539 49 347 0.0 0.0 0.00 1.05 0.01 97 1013.6
20260507053029 49 347 0.0 0.0 0.00 1.05 0.01 97 1013.6
20260507051526 48 295 0.0 0.0 0.00 1.05 0.01 97 1013.5
20260507050032 48 138 0.0 0.0 0.00 1.05 0.01 96 1013.4
20260507044523 48 138 0.0 0.0 0.00 1.19 0.01 96 1013.2
20260507043016 48 138 0.0 0.0 0.00 1.19 0.01 96 1013.1
20260507041527 48 138 0.0 0.0 0.00 1.19 0.01 96 1013.1
20260507040014 48 138 0.0 0.0 0.00 1.19 0.01 96 1013.0
20260507034517 48 138 0.0 0.0 0.00 1.23 0.01 96 1013.0
20260507033013 48 138 0.9 2.6 0.00 1.23 0.01 96 1012.9
20260507031521 48 167 0.0 0.0 0.00 1.23 0.01 96 1013.1
20260507030013 48 167 0.0 0.0 0.00 1.23 0.01 96 1013.0
20260507024513 48 167 0.0 0.0 0.00 1.23 0.01 96 1013.0
20260507023009 48 167 0.0 0.0 0.00 1.23 0.01 96 1013.0